TimeAST,TemperatureF,Dew PointF,Humidity,Sea Level PressureIn,VisibilityMPH,Wind Direction,Wind SpeedMPH,Gust SpeedMPH,PrecipitationIn,Events,Conditions,WindDirDegrees,DateUTC
12:04 AM,78.8,75.2,89,30.02,10.0,SE,9.2,-,N/A,,Mostly Cloudy,130,2013-04-06 04:04:00
12:20 AM,78.8,73.4,83,30.01,10.0,SE,11.5,-,N/A,,Mostly Cloudy,130,2013-04-06 04:20:00
12:27 AM,78.8,75.2,89,30.01,10.0,SE,12.7,-,N/A,,Mostly Cloudy,130,2013-04-06 04:27:00
12:53 AM,79.0,73.9,84,30.01,10.0,SE,10.4,-,N/A,,Scattered Clouds,140,2013-04-06 04:53:00
1:53 AM,79.0,73.0,82,29.99,10.0,SE,12.7,-,N/A,,Partly Cloudy,140,2013-04-06 05:53:00
2:53 AM,79.0,72.0,79,29.99,10.0,SE,11.5,-,N/A,,Scattered Clouds,140,2013-04-06 06:53:00
3:53 AM,78.1,73.0,84,29.99,10.0,SE,10.4,-,N/A,,Clear,140,2013-04-06 07:53:00
4:53 AM,79.0,72.0,79,29.99,10.0,SE,10.4,-,N/A,,Scattered Clouds,130,2013-04-06 08:53:00
5:53 AM,78.1,73.9,87,30.01,10.0,SE,12.7,-,0.02,,Mostly Cloudy,130,2013-04-06 09:53:00
6:53 AM,79.0,73.0,82,30.03,10.0,SE,13.8,-,N/A,,Mostly Cloudy,140,2013-04-06 10:53:00
7:19 AM,80.6,73.4,79,30.03,10.0,SE,13.8,-,N/A,,Scattered Clouds,130,2013-04-06 11:19:00
7:53 AM,80.1,73.0,79,30.05,10.0,SE,12.7,-,N/A,,Partly Cloudy,140,2013-04-06 11:53:00
8:53 AM,82.0,73.9,76,30.07,10.0,SE,13.8,19.6,N/A,,Mostly Cloudy,130,2013-04-06 12:53:00
9:02 AM,80.6,73.4,79,30.07,10.0,SE,16.1,19.6,N/A,,Mostly Cloudy,130,2013-04-06 13:02:00
9:34 AM,82.4,73.4,74,30.07,10.0,SE,13.8,21.9,N/A,,Mostly Cloudy,130,2013-04-06 13:34:00
9:53 AM,82.0,73.9,76,30.07,10.0,SE,16.1,-,N/A,,Mostly Cloudy,130,2013-04-06 13:53:00
10:13 AM,82.4,73.4,74,30.06,10.0,SE,13.8,24.2,N/A,,Scattered Clouds,130,2013-04-06 14:13:00
10:53 AM,81.0,71.1,72,30.07,10.0,SE,16.1,26.5,N/A,,Mostly Cloudy,130,2013-04-06 14:53:00
12:53 PM,84.0,73.0,69,30.05,10.0,SE,16.1,24.2,N/A,,Clear,130,2013-04-06 16:53:00
1:53 PM,84.0,73.9,72,30.01,10.0,SE,15.0,24.2,N/A,,Clear,140,2013-04-06 17:53:00
2:53 PM,84.0,72.0,67,29.98,10.0,SE,20.7,25.3,N/A,,Partly Cloudy,140,2013-04-06 18:53:00
3:53 PM,82.9,72.0,69,29.98,10.0,SE,17.3,-,N/A,,Clear,140,2013-04-06 19:53:00
4:53 PM,82.0,72.0,71,29.97,10.0,SE,12.7,-,N/A,,Partly Cloudy,140,2013-04-06 20:53:00
5:53 PM,81.0,72.0,74,29.98,10.0,SE,13.8,-,N/A,,Scattered Clouds,130,2013-04-06 21:53:00
6:53 PM,81.0,73.0,77,30.00,10.0,SE,10.4,-,N/A,,Scattered Clouds,140,2013-04-06 22:53:00
7:51 PM,80.6,73.4,79,30.02,10.0,SE,11.5,-,N/A,,Mostly Cloudy,130,2013-04-06 23:51:00
7:53 PM,80.1,73.0,79,30.02,10.0,SE,10.4,-,N/A,,Mostly Cloudy,130,2013-04-06 23:53:00
8:09 PM,80.6,73.4,79,30.03,10.0,SE,12.7,-,N/A,,Scattered Clouds,130,2013-04-07 00:09:00
8:53 PM,79.0,73.0,82,30.04,10.0,East,8.1,-,N/A,,Partly Cloudy,100,2013-04-07 00:53:00
10:53 PM,78.1,72.0,81,30.05,10.0,East,8.1,-,N/A,,Clear,100,2013-04-07 02:53:00
11:53 PM,78.1,72.0,81,30.04,10.0,ESE,10.4,-,N/A,,Clear,110,2013-04-07 03:53:00